Flag for Moldova Weather past 2 weeks in Cahul, Moldova

Now
71 °F

Partly sunny.


Feels Like: 77 °F
Forecast: 52 / 75 °F
Wind: 5 mph from North

Location: Galati

Current Time: Sep 16, 2014 at 3:22:57 PM

Latest Report: Sep 16, 2014 at 2:00 PM


Visibility: 13 mi

Pressure: 30.12 "Hg

Humidity: 36%

Dew point: 42 °F

Location of CahulLocation

Historic Weather in Cahul — Graph

°F

Cahul temperature yesterday

Maximum temperature yesterday: 83 °F (at 3:00 PM)
Minimum temperature yesterday: 58 °F (at 7:00 AM)
Average temperature yesterday: 69 °F

Past Weeks' High & Low Weather Summary

 TemperatureHumidityPressure
High87 °F (Sep 2, 5:00 PM)98% (Sep 12, 3:00 AM)30.14 "Hg (Sep 12, 3:00 AM)
Low57 °F (Sep 9, 7:00 AM)21% (Sep 8, 4:00 PM)29.81 "Hg (Sep 2, 6:00 PM)
Average72 °F54%29.97 "Hg
* Reported Sep 1 2:00 PM — Sep 16 2:00 PM, Cahul, Weather by CustomWeather, © 2014

Note: Actual official high and low records may vary slightly from our data, if they occured in-between our weather recording intervals... More about our weather records

Advertising

Cahul weather history for previous 24 hours

 ConditionsComfort  
Time TempWeatherWind HumidityBarometerVisibility
2:00 PM
Sep 16
71 °FPartly sunny.5 mph36%30.12 "Hg12 mi
1:00 PM71 °FPartly sunny.5 mph40%30.12 "Hg12 mi
12:00 PM67 °FPartly sunny.5 mph51%30.13 "Hg12 mi
11:00 AM64 °FPartly sunny.5 mph54%30.13 "Hg12 mi
10:00 AM61 °FPartly sunny.6 mph58%30.13 "Hg12 mi
9:00 AM58 °FPartly sunny.5 mph64%30.12 "Hg12 mi
8:00 AM58 °FOvercast.5 mph65%30.10 "Hg12 mi
7:00 AM60 °FScattered clouds.5 mph62%30.09 "Hg12 mi
6:00 AM61 °FPassing clouds.3 mph58%30.09 "Hg12 mi
5:00 AM63 °FOvercast.2 mph52%30.08 "Hg12 mi
4:00 AM65 °FPassing clouds.2 mph46%30.08 "Hg12 mi
3:00 AM66 °FPassing clouds.2 mph45%30.07 "Hg12 mi
2:00 AM65 °FPassing clouds.2 mph54%30.06 "Hg12 mi
1:00 AM66 °FPassing clouds.3 mph56%30.05 "Hg12 mi
12:00 AM66 °FPassing clouds.1 mph62%30.03 "Hg12 mi
11:00 PM
Sep 15
67 °FPassing clouds.1 mph58%30.03 "Hg12 mi
10:00 PM67 °FPassing clouds.No wind60%30.03 "Hg12 mi
9:00 PM69 °FPassing clouds.No wind50%30.03 "Hg12 mi
8:00 PM72 °FPassing clouds.2 mph44%30.02 "Hg12 mi
7:00 PM75 °FPartly sunny.2 mph39%30.01 "Hg12 mi
6:00 PM79 °FPassing clouds.3 mph32%30.01 "Hg12 mi
5:00 PM81 °FScattered clouds.3 mph29%30.01 "Hg12 mi
4:00 PM82 °FScattered clouds.2 mph26%30.02 "Hg12 mi
3:00 PM83 °FScattered clouds.2 mph28%30.03 "Hg12 mi
Weather by CustomWeather, © 2014

See weather overviewHow to use our weather pages